Lid_Strength_Index
4 4 4 4 4 4 4 4 4 4 3 4 4 4 4 4 4 4 6 6 5 3 3 4 4 4 4 4 3 3 8 9 8 8 7 4 5 3 3 3 3 3 3 3 2
4 4 4 4 4 4 4 4 4 4 4 4 4 4 4 4 5 6 3 4 4 2 2 4 5 5 5 5 4 5 8 8 6 5 6 5 5 4 4 5 4 3 3 2 2
4 4 4 4 4 4 4 4 4 4 4 4 4 4 4 3 6 4 1 2 1 0 1 2 3 4 6 5 4 5 7 5 5 4 4 5 5 4 5 6 4 4 3 3 3
3 4 4 4 4 4 4 4 4 4 4 4 4 3 3 4 10 3 -0 -0 -0 1 2 2 3 5 5 6 4 6 5 5 5 4 4 6 5 6 5 5 3 2 2 3 3
3 4 4 4 4 4 4 4 4 4 4 4 3 3 4 6 6 1 -0 -1 2 2 3 3 4 4 7 6 5 6 5 4 4 4 4 4 6 6 6 4 3 2 2 3 3
4 4 4 5 4 5 5 4 4 4 4 4 3 4 4 8 3 2 1 2 2 2 3 3 3 3 5 6 6 5 5 5 4 4 4 5 5 6 5 4 3 3 3 3 3
4 4 4 5 5 5 4 4 4 4 4 3 3 3 5 5 2 1 1 1 1 2 3 3 3 4 4 6 4 5 7 6 5 5 5 4 6 7 5 4 4 3 3 3 3
4 4 4 5 5 4 4 4 4 4 3 3 3 3 5 2 1 1 0 1 1 1 3 3 3 4 4 4 5 7 6 9 6 5 5 5 9 6 4 5 5 4 3 3 2
4 4 4 5 5 5 4 4 4 3 3 3 3 3 5 3 3 0 0 2 2 3 3 3 4 6 5 7 9 7 10 9 8 5 6 6 8 5 4 5 5 4 4 3 3
4 5 5 5 5 5 4 4 3 3 3 2 3 5 3 4 2 1 0 1 4 4 4 5 5 6 6 9 13 10 10 9 9 6 6 7 7 5 4 4 5 4 4 3 3
4 5 5 5 5 5 4 3 4 5 3 5 5 4 3 2 0 2 1 2 3 4 8 5 8 9 8 7 7 8 10 9 8 6 7 7 7 6 5 4 5 4 4 3 3
5 5 5 5 5 5 3 3 3 4 6 3 3 3 2 2 5 3 1 5 5 8 6 8 9 7 6 7 8 9 11 10 8 6 7 7 8 6 5 5 4 5 4 3 3
5 5 5 5 5 4 2 3 1 2 6 5 4 4 3 3 5 5 3 4 6 7 7 9 8 6 7 8 9 9 10 10 10 7 6 7 8 7 6 5 4 4 4 3 3
5 5 5 5 5 2 3 1 1 1 9 7 6 4 3 3 6 2 2 4 6 8 8 8 7 7 9 10 9 12 7 9 9 10 13 7 12 8 7 6 5 5 4 3 3
5 5 5 6 2 4 3 1 1 2 16 7 5 1 2 5 5 6 2 4 8 8 8 10 9 9 10 9 8 9 8 8 9 11 11 9 11 9 7 8 6 5 4 3 3
5 5 4 3 2 3 1 0 2 10 14 8 5 6 6 6 7 6 5 4 4 7 7 8 5 7 8 8 7 7 9 9 12 13 18 10 10 10 9 7 6 5 4 4 3
5 5 4 3 5 2 1 2 9 12 7 9 8 6 6 8 7 8 9 9 12 14 12 10 9 6 6 9 7 8 12 18 19 17 16 9 11 10 7 6 5 5 5 4 3
6 6 3 3 3 1 2 6 12 10 9 6 7 6 8 7 7 7 9 11 9 10 13 14 17 8 7 8 9 9 12 18 20 16 14 9 12 10 6 5 4 4 4 3 3
7 1 4 4 3 1 4 10 12 10 8 8 7 8 8 7 8 8 9 12 11 9 15 15 14 7 7 6 8 9 15 11 16 12 12 11 9 8 6 5 5 5 4 4 3
3 2 5 3 2 2 7 13 10 8 7 7 10 8 10 9 9 9 11 10 11 9 8 12 17 8 7 6 6 9 10 16 16 18 20 12 11 11 8 7 5 5 5 4 3
3 5 4 3 2 6 10 10 9 7 6 8 8 9 9 9 9 9 12 10 9 9 7 10 12 10 7 9 10 9 10 11 12 14 18 15 16 9 7 6 5 5 4 4 4
4 8 3 3 7 7 9 9 9 7 5 6 6 7 8 8 9 9 9 10 8 9 12 9 12 14 9 7 6 7 8 11 17 16 14 13 18 7 7 6 5 5 4 4 3
6 6 4 4 10 9 8 8 7 8 7 7 7 6 6 8 10 8 8 6 7 9 10 9 13 16 11 8 7 9 8 12 12 11 16 16 16 6 6 6 5 4 4 4 3
6 9 7 6 7 8 9 9 9 7 7 7 7 6 7 8 7 9 8 8 7 8 7 8 11 15 18 15 8 10 10 10 12 13 13 15 11 9 8 8 7 5 4 4 4
6 9 7 9 8 8 7 8 10 9 7 6 7 7 8 10 9 9 8 8 7 7 7 9 14 11 10 8 8 9 9 9 10 12 15 12 11 9 8 8 7 6 5 4 5
8 9 8 8 7 8 9 9 10 9 8 8 8 8 7 9 9 10 8 8 9 7 8 7 14 12 12 8 8 9 8 8 8 8 10 9 11 7 6 6 7 6 6 6 5
5 5 7 8 8 9 10 9 10 8 7 7 7 7 8 7 6 5 6 6 7 8 9 9 12 14 14 10 9 11 9 8 8 7 8 12 9 7 8 8 8 7 7 7 7